OPS 4682 DEB, 38373

Orbit data source: Space-Track

OPS 4682 DEB, 38373 is space debris in LEO originally from a launch on Sat, 03 Apr 1965 UTC launched from the Air Force Western Test Range (AFWTR). Debris objects in space refer to the collection of defunct objects orbiting the Earth. Examples of debris include non-operational satellites, rocket bodies, and fragments generated from explosions, collisions, or faulty payload assembly.

Loading next visibility...
Identifier
38373, 1965-027CA
Orbit
LEO
Country
Flag of USUS
Related business
Manufacturer
Unknown
Mission
Spacecraft
Bus & Motor
Unknown
Mass
Unknown
Launch date (UTC)
1965-04-03 (61 years ago)
Launch vehicle
Unknown
Launch site
Air Force Western Test Range (AFWTR)
Object type
Payload
Rocket body
Debris
Shape & HBR
Unknown shape, 0.1 m
Radar Cross Section
Medium (>0.1 m² and <1 m²)

Expand to show TLE details & history
Last TLE update: 1 week ago

TLE from 1 week ago
0 OPS 4682 DEB
1 38373U 65027CA  26150.61882846 -.00000578  00000-0 -19131-2 0  9990
2 38373  90.2744  30.0648 0028462 230.8799 128.9793 13.01048496614751
Epoch: 2026-05-30T14:51Z
TLE epoch observation values (Epoch: 2026-05-30T14:51:06.778Z)
Latitude
-0.00005°
Longitude
-80.8457°
Altitude
1,274.578 km
Speed
7.212 km/s
True Right ascension
02h 00m 15s
True Declination
0° 00' 00"
Sunlit
Object was in daylight at epoch
Visualization orbit readout
Latitude
Unknown
Longitude
Unknown
Altitude
Unknown
Speed
Unknown
Apparent Right ascension
Unknown
Apparent Declination
Unknown
Sunlit
N/A
Visualization observer readout
Local Sidereal Time
12:59:59
Azimuth
Unknown
Elevation
Unknown
Doppler factor
Unknown
Orbital elements
Apogee altitude
1,276.833 km
Perigee altitude
1,233.381 km
Semi-major axis
7,633.244 km
Eccentricity
0.00285
Inclination
90.2744°
RAAN
30.0648°
Arg. of periapsis
230.8799°
True anomaly
129.23227°
Mean anomaly
128.9793°
Eccentric anomaly
129.10584°
Mean motion
3.25446 °/min
Orbital period
110.62 mins
BSTAR
-0.0019131
Loading maneuver chart data...
Computing Atmospheric mass density...
Loading historical data...
Loading historical data...
Loading historical data...
Loading historical data...
Loading historical data...
Loading historical data...
Loading historical data...

Documentation

Showing up to 5 results
|